Flag for San Marino Weather past 2 weeks in San Marino, San Marino

Now
63 °F

Scattered clouds.


Feels Like: 63 °F
Forecast: 47 / 54 °F
Wind: 5 mph from Southeast

Location: Rimini Airport

Current Time: Apr 27, 2015 at 1:30:39 PM

Latest Report: Apr 27, 2015 at 12:45 PM


Visibility: N/A

Pressure: 29.74 "Hg

Humidity: 100%

Dew point: 63 °F

Location of San MarinoLocation

Historic Weather in San Marino — Graph

°F

San Marino temperature yesterday

Maximum temperature yesterday: 63 °F (at 11:15 AM)
Minimum temperature yesterday: 52 °F (at 5:15 AM)
Average temperature yesterday: 58 °F

Past Weeks' High & Low Weather Summary

 TemperatureHumidityPressure
High72 °F (Apr 23, 2:15 PM)100% (Apr 13, 7:45 AM)30.42 "Hg (Apr 13, 7:45 AM)
Low39 °F (Apr 20, 7:45 AM)44% (Apr 23, 2:15 PM)29.77 "Hg (Apr 27, 8:45 AM)
Average59 °F81%30.06 "Hg
* Reported Apr 12 12:15 PM — Apr 27 12:15 PM, San Marino, Weather by CustomWeather, © 2015

Note: Actual official high and low records may vary slightly from our data, if they occured in-between our weather recording intervals... More about our weather records

Advertising

San Marino weather history for previous 24 hours

 ConditionsComfort  
Time TempWeatherWind HumidityBarometerVisibility
12:15 PM
Mon, Apr 27
61 °FScattered clouds.5 mph88%29.77 "HgN/A
11:45 AM63 °FScattered clouds.7 mph83%29.77 "HgN/A
11:15 AM63 °FScattered clouds.13 mph83%29.77 "HgN/A
10:45 AM61 °FScattered clouds.7 mph88%29.77 "HgN/A
10:15 AM59 °FScattered clouds.6 mph94%29.77 "HgN/A
9:45 AM59 °FScattered clouds.6 mph94%29.77 "HgN/A
9:15 AM59 °FLight rain. Scattered clouds.5 mph94%29.77 "Hg5 mi
8:45 AM59 °FLight rain. Scattered clouds.9 mph82%29.77 "Hg6 mi
8:15 AM61 °FScattered clouds.7 mph77%29.80 "HgN/A
7:45 AM61 °FScattered clouds.7 mph77%29.80 "HgN/A
7:15 AM59 °FScattered clouds.5 mph82%29.80 "HgN/A
6:45 AM59 °FPassing clouds.5 mph82%29.80 "HgN/A
6:15 AM57 °FPassing clouds.3 mph88%29.80 "HgN/A
5:45 AM57 °FClear.2 mph88%29.80 "Hg10 mi
5:15 AM59 °FClear.3 mph82%29.80 "Hg10 mi
4:45 AM59 °FClear.3 mph82%29.80 "Hg10 mi
4:15 AM59 °FClear.6 mph82%29.83 "Hg10 mi
3:45 AM59 °FClear.5 mph88%29.86 "Hg10 mi
3:15 AM57 °FClear.3 mph94%29.86 "Hg10 mi
2:45 AM55 °FClear.3 mph94%29.86 "Hg10 mi
2:15 AM55 °FClear.5 mph94%29.86 "Hg10 mi
1:15 AM57 °FClear.3 mph94%29.86 "Hg10 mi
12:45 AM57 °FClear.2 mph94%29.89 "Hg10 mi
12:15 AM55 °FClear.No wind94%29.89 "Hg10 mi
11:45 PM
Sun, Apr 26
55 °FClear.No wind94%29.89 "Hg10 mi
11:15 PM55 °FClear.2 mph94%29.89 "Hg10 mi
10:45 PM55 °FClear.2 mph94%29.89 "Hg10 mi
10:15 PM55 °FPassing clouds.2 mph94%29.89 "HgN/A
9:45 PM57 °FPassing clouds.No wind94%29.89 "HgN/A
9:15 PM57 °FPassing clouds.2 mph100%29.89 "Hg4 mi
8:45 PM59 °FPartly sunny.3 mph100%29.89 "Hg4 mi
8:15 PM59 °FLight rain. Fog.6 mph100%29.89 "Hg3 mi
7:45 PM59 °FFog.5 mph100%29.86 "Hg3 mi
7:15 PM57 °FFog.5 mph100%29.86 "Hg3 mi
6:45 PM59 °FFog.8 mph100%29.86 "Hg3 mi
6:15 PM59 °FFog.9 mph100%29.86 "Hg3 mi
5:45 PM59 °FFog.10 mph100%29.89 "Hg3 mi
5:15 PM61 °FFog.10 mph100%29.89 "Hg3 mi
4:45 PM61 °FFog.10 mph100%29.89 "Hg3 mi
4:15 PM61 °FFog.10 mph88%29.89 "Hg3 mi
3:45 PM61 °FFog.10 mph88%29.92 "Hg3 mi
3:15 PM61 °FFog.9 mph100%29.92 "Hg2 mi
2:45 PM61 °FFog.7 mph100%29.92 "Hg2 mi
2:15 PM61 °FFog.10 mph100%29.92 "Hg2 mi
1:45 PM61 °FFog.9 mph100%29.95 "Hg2 mi
1:15 PM61 °FFog.9 mph100%29.92 "Hg2 mi
Weather by CustomWeather, © 2015

See weather overviewHow to use our weather pages